[[{"header":{"parameterUnit":"m.s-1","parameterCategory":1,"la1":30.2991,"la2":30.254,"lo1":-89.0895,"lo2":-89.0444,"dy":0.0017,"dx":0.0017,"nx":28,"ny":28,"refTime":"2025-04-24T21:00:00:Z","depth":0,"parameterNumber":2,"parameterNumberName":"U-component_of_WINDS"},"data":[0,0,0,0,0,0,0,0,0,0,0,0,0,0,0,0,0,0,0,0,0,0,0,0,0,0,0,0,0,0,0,0,0,0,0,0,0,0,0,0,0,0,0,0,0,0,0,0,0,0,0,0,0,0,0,0,0,0,-0.1038,-0.1038,0,-0.1029,-0.1029,-0.1029,-0.1026,-0.1026,-0.1026,-0.1026,-0.1017,-0.1017,-0.1017,0,0,0,0,0,0,0,0,0,0,0,0,0,-0.1054,-0.1054,-0.1038,-0.1038,-0.1038,-0.1029,-0.1029,-0.1029,-0.1026,-0.1026,-0.1026,-0.1026,-0.1017,-0.1017,-0.1017,0,0,0,0,0,0,0,0,0,0,0,0,0,-0.1046,-0.1054,-0.1038,-0.1036,-0.1035,-0.1029,-0.1029,-0.1029,-0.1026,-0.1026,-0.1026,-0.1026,-0.1017,-0.1017,-0.1017,-0.1013,0,0,-0.1015,-0.1015,0,0,0,0,0,0,0,0,-0.1047,-0.1046,-0.1036,-0.1036,-0.1035,-0.1029,-0.1031,-0.1023,-0.1026,-0.103,-0.1026,-0.1026,-0.1021,-0.102,-0.1018,-0.1012,-0.1012,-0.1015,-0.1015,-0.1015,-0.1015,0,0,0,0,0,0,0,-0.1047,-0.1046,-0.1035,-0.1036,-0.1036,-0.1035,-0.1034,-0.103,-0.1025,-0.1029,-0.1029,-0.1028,-0.1021,-0.1019,-0.1018,-0.1012,-0.1015,-0.1015,-0.1015,-0.1014,-0.1002,-0.1002,0,0,0,0,0,0,-0.1048,-0.1047,-0.1035,-0.1034,-0.1041,-0.1035,-0.1034,-0.1031,-0.1025,-0.1024,-0.1028,-0.1028,-0.102,-0.1019,-0.1018,-0.1013,-0.1015,-0.1014,-0.1014,-0.1002,-0.1002,-0.1002,0,0,0,0,0,0,-0.1049,-0.1047,-0.1035,-0.104,-0.1039,-0.1034,-0.1031,-0.1031,-0.1029,-0.1024,-0.1023,-0.1027,-0.102,-0.1018,-0.1014,-0.1013,-0.1014,-0.1014,-0.1002,-0.1002,-0.1002,-0.1003,0,0,0,0,0,0,-0.1049,-0.1047,-0.1046,-0.104,-0.1039,-0.1031,-0.1031,-0.103,-0.1028,-0.1028,-0.1023,-0.1022,-0.102,-0.1015,-0.1013,-0.1012,-0.1013,-0.1002,-0.1002,-0.1002,-0.1003,-0.1003,-0.1003,0,0,0,0,0,-0.105,-0.1046,-0.1046,-0.1044,-0.1036,-0.1031,-0.103,-0.1027,-0.1028,-0.1026,-0.1023,-0.1022,-0.1013,-0.1014,-0.1013,-0.1011,-0.1002,-0.1002,-0.1002,-0.1003,-0.1003,-0.1003,0,0,0,0,0,0,-0.1052,-0.1046,-0.1045,-0.1039,-0.1036,-0.1031,-0.1028,-0.1027,-0.1024,-0.1024,-0.102,-0.1019,-0.1015,-0.1013,-0.1014,-0.1007,-0.1008,-0.1007,-0.1009,-0.1009,-0.1009,-0.1009,-0.1013,0,0,0,0,0,-0.1052,-0.1048,-0.1043,-0.1039,-0.1037,-0.1033,-0.1031,-0.1029,-0.1025,-0.1023,-0.102,-0.1017,-0.1013,-0.1011,-0.1007,-0.1003,-0.1002,-0.1001,-0.1001,-0.1001,-0.1001,-0.0998,-0.0998,-0.1001,-0.1001,-0.1001,0,0,-0.1051,-0.1047,-0.1045,-0.1039,-0.1036,-0.1032,-0.1032,-0.1028,-0.1025,-0.1023,-0.1018,-0.1016,-0.1012,-0.1007,-0.1005,-0.1005,-0.0999,-0.1001,-0.1001,-0.1,-0.0998,-0.0998,-0.0997,-0.1001,-0.1001,-0.1001,0,0,-0.1048,-0.1045,-0.1041,-0.1038,-0.1034,-0.1031,-0.1031,-0.1026,-0.1024,-0.1019,-0.1018,-0.1015,-0.1008,-0.1006,-0.1003,-0.1,-0.0999,-0.0999,-0.0998,-0.0996,-0.0996,-0.0996,-0.0995,-0.0994,-0.0999,-0.0999,-0.0999,0,-0.1049,-0.1043,-0.104,-0.1036,-0.1033,-0.1031,-0.1028,-0.1025,-0.102,-0.1018,-0.1018,-0.101,-0.1007,-0.1002,-0.1002,-0.1,-0.0999,-0.1,-0.0996,-0.0996,-0.0996,-0.0995,-0.0994,-0.0999,-0.0999,-0.0999,-0.0999,0,-0.1043,-0.1039,-0.1037,-0.1032,-0.1029,-0.1025,-0.1022,-0.102,-0.1018,-0.1016,-0.1011,-0.1008,-0.1003,-0.1002,-0.1001,-0.0997,-0.0997,-0.0997,-0.0997,-0.0996,-0.0995,-0.0994,-0.0999,-0.0999,-0.0999,-0.0999,0,0,-0.1041,-0.1035,-0.1034,-0.1032,-0.1026,-0.1023,-0.102,-0.1016,-0.1014,-0.101,-0.1007,-0.1002,-0.1002,-0.0999,-0.0998,-0.0996,-0.0994,-0.0996,-0.0996,-0.0996,-0.099,-0.099,-0.099,-0.0993,-0.0993,-0.0993,-0.099,0,-0.1038,-0.1031,-0.1029,-0.1024,-0.102,-0.1018,-0.1015,-0.1012,-0.101,-0.1006,-0.1004,-0.1001,-0.1,-0.0999,-0.0997,-0.0994,-0.0993,-0.0995,-0.0991,-0.099,-0.0992,-0.0989,-0.0989,-0.0987,-0.099,-0.099,-0.099,0,-0.1033,-0.103,-0.1024,-0.102,-0.1018,-0.1015,-0.1012,-0.1009,-0.1005,-0.1004,-0.1001,-0.0999,-0.0996,-0.0996,-0.0992,-0.0993,-0.0991,-0.099,-0.099,-0.0989,-0.099,-0.0989,-0.0986,-0.0986,-0.0989,-0.0989,-0.0989,0,-0.1033,-0.1027,-0.1022,-0.102,-0.1015,-0.1013,-0.1011,-0.1008,-0.1005,-0.1002,-0.1001,-0.0997,-0.0995,-0.0992,-0.099,-0.099,-0.0986,-0.0986,-0.0984,-0.0984,-0.0983,-0.0983,-0.0981,-0.0982,-0.0982,-0.0982,-0.0982,0,-0.103,-0.1026,-0.1022,-0.1019,-0.1016,-0.1013,-0.1009,-0.1007,-0.1004,-0.1001,-0.0999,-0.0997,-0.0994,-0.0991,-0.0989,-0.0986,-0.0985,-0.0984,-0.0983,-0.0984,-0.0984,-0.0983,-0.0983,-0.0982,-0.0982,-0.0982,-0.0982,0,-0.1028,-0.1025,-0.1021,-0.1016,-0.1015,-0.1012,-0.1009,-0.1006,-0.1004,-0.1001,-0.1,-0.0996,-0.0993,-0.099,-0.0986,-0.0984,-0.0981,-0.098,-0.0982,-0.0982,-0.098,-0.0981,-0.0977,-0.0976,-0.0978,-0.0978,-0.0978,0,-0.1026,-0.1024,-0.1019,-0.1017,-0.1015,-0.1011,-0.1009,-0.1006,-0.1004,-0.1,-0.0998,-0.0994,-0.0991,-0.0986,-0.0983,-0.098,-0.0979,-0.0978,-0.0979,-0.098,-0.098,-0.098,-0.098,-0.0978,-0.0978,-0.0978,-0.0978,0,-0.1023,-0.1022,-0.1019,-0.1015,-0.1012,-0.1009,-0.1006,-0.1004,-0.1001,-0.0999,-0.0995,-0.0993,-0.0988,-0.0985,-0.0981,-0.0979,-0.0978,-0.0978,-0.0978,-0.0978,-0.0979,-0.0979,-0.0982,-0.0978,-0.0978,-0.0978,-0.0978,-0.0978,-0.1022,-0.1019,-0.1016,-0.1012,-0.101,-0.1007,-0.1004,-0.1002,-0.0999,-0.0995,-0.0994,-0.099,-0.0987,-0.0982,-0.098,-0.0977,-0.0977,-0.0976,-0.0976,-0.0976,-0.0976,-0.098,-0.0976,-0.0976,-0.0976,-0.0976,-0.0976,0,-0.1019,-0.1016,-0.1013,-0.1009,-0.1006,-0.1005,-0.1002,-0.1,-0.0996,-0.0994,-0.0991,-0.0987,-0.0983,-0.0981,-0.0977,-0.0976,-0.0975,-0.0975,-0.0975,-0.0975,-0.0976,-0.0977,-0.0975,-0.0975,-0.0975,-0.0975,-0.0975,-0.0975,-0.1017,-0.1013,-0.1011,-0.1006,-0.1004,-0.1,-0.0998,-0.0996,-0.0994,-0.0989,-0.0986,-0.0985,-0.0982,-0.0978,-0.0975,-0.0975,-0.0974,-0.0973,-0.0973,-0.0974,-0.0974,-0.0975,-0.0975,-0.0973,-0.0973,-0.0971,-0.0971,-0.0971]},{"header":{"parameterUnit":"m.s-1","parameterCategory":1,"la1":30.2991,"la2":30.254,"lo1":-89.0895,"lo2":-89.0444,"dy":0.0017,"dx":0.0017,"nx":28,"ny":28,"refTime":"2025-04-24T21:00:00:Z","depth":0,"parameterNumber":3,"parameterNumberName":"V-component_of_WINDS"},"data":[0,0,0,0,0,0,0,0,0,0,0,0,0,0,0,0,0,0,0,0,0,0,0,0,0,0,0,0,0,0,0,0,0,0,0,0,0,0,0,0,0,0,0,0,0,0,0,0,0,0,0,0,0,0,0,0,0,0,0.4083,0.4082,0,0.4035,0.4035,0.4034,0.3996,0.3995,0.3995,0.3995,0.3945,0.3944,0.3943,0,0,0,0,0,0,0,0,0,0,0,0,0,0.4139,0.4138,0.4083,0.4082,0.4081,0.4035,0.4035,0.4034,0.3996,0.3995,0.3995,0.3995,0.3945,0.3944,0.3943,0,0,0,0,0,0,0,0,0,0,0,0,0,0.4105,0.4138,0.4083,0.4057,0.4054,0.4035,0.4035,0.4034,0.3996,0.3995,0.3995,0.3994,0.3945,0.3944,0.3942,0.3945,0,0,0.3938,0.3937,0,0,0,0,0,0,0,0,0.4107,0.4103,0.4061,0.4059,0.4056,0.4021,0.4036,0.4004,0.3996,0.4018,0.3995,0.3994,0.397,0.3967,0.3959,0.3943,0.394,0.3938,0.3937,0.3936,0.3936,0,0,0,0,0,0,0,0.411,0.4105,0.4064,0.4061,0.4057,0.4047,0.4042,0.403,0.3998,0.4016,0.4013,0.4008,0.3969,0.3961,0.3958,0.394,0.3938,0.3936,0.3936,0.3935,0.3923,0.3923,0,0,0,0,0,0,0.4116,0.4107,0.4065,0.4062,0.4081,0.4047,0.4041,0.4033,0.3998,0.3992,0.4009,0.4007,0.3963,0.3959,0.3956,0.3956,0.3936,0.3935,0.3934,0.3922,0.3923,0.3923,0,0,0,0,0,0,0.4117,0.4113,0.4067,0.4084,0.4077,0.4046,0.4038,0.4032,0.4024,0.3992,0.3986,0.4007,0.3963,0.3958,0.3948,0.3954,0.3934,0.3933,0.3921,0.3922,0.3923,0.3958,0,0,0,0,0,0,0.4119,0.4113,0.4114,0.4084,0.4077,0.4061,0.4038,0.4031,0.4022,0.4018,0.3989,0.3983,0.3962,0.395,0.3946,0.3952,0.3932,0.3921,0.3922,0.3923,0.3956,0.3959,0.3963,0,0,0,0,0,0.4121,0.4126,0.4115,0.411,0.4077,0.4061,0.4057,0.4033,0.4022,0.4023,0.4003,0.3984,0.3954,0.395,0.3945,0.395,0.392,0.3921,0.3923,0.3954,0.3959,0.3963,0,0,0,0,0,0,0.4157,0.4121,0.4109,0.4103,0.4086,0.4055,0.4055,0.4038,0.4023,0.402,0.399,0.3984,0.3977,0.3962,0.3958,0.395,0.3935,0.3935,0.396,0.3964,0.3968,0.3971,0.3931,0,0,0,0,0,0.4164,0.4154,0.4124,0.4122,0.4114,0.4086,0.4078,0.4061,0.4041,0.4033,0.4012,0.3993,0.398,0.3971,0.3957,0.3953,0.3946,0.3954,0.3958,0.3961,0.3961,0.3958,0.3962,0.3927,0.3927,0.3927,0,0,0.4179,0.4158,0.4154,0.4129,0.4113,0.4103,0.408,0.4071,0.4063,0.4032,0.4021,0.4005,0.3982,0.3976,0.3972,0.3963,0.3969,0.3962,0.3965,0.3964,0.396,0.3963,0.3966,0.3928,0.3928,0.3928,0,0,0.4201,0.4184,0.4181,0.4166,0.4143,0.4124,0.4124,0.4095,0.4084,0.4073,0.4049,0.4039,0.4016,0.4001,0.399,0.4006,0.3989,0.4002,0.402,0.4018,0.402,0.4023,0.4028,0.4031,0.4003,0.4003,0.4003,0,0.4222,0.4207,0.4181,0.4174,0.4163,0.4135,0.4132,0.4118,0.4091,0.4084,0.4075,0.4045,0.4028,0.4017,0.4021,0.4014,0.4011,0.4005,0.4022,0.4024,0.4026,0.4031,0.4033,0.4005,0.4005,0.4005,0.4004,0,0.4234,0.4224,0.4224,0.4199,0.4189,0.4183,0.4156,0.4149,0.4133,0.4115,0.4104,0.4082,0.4063,0.4059,0.4043,0.4046,0.4042,0.4028,0.4012,0.4031,0.4036,0.4037,0.4007,0.4007,0.4006,0.4006,0,0,0.4276,0.4238,0.4238,0.4227,0.4199,0.4191,0.4184,0.4165,0.4159,0.4142,0.4135,0.4116,0.4103,0.4091,0.4073,0.407,0.4085,0.4057,0.4056,0.4062,0.4087,0.4097,0.41,0.4073,0.4073,0.4073,0.4088,0,0.4293,0.428,0.4257,0.4251,0.4241,0.4214,0.4208,0.419,0.4174,0.4162,0.4144,0.4131,0.4115,0.4107,0.4104,0.4084,0.4089,0.4082,0.4066,0.4065,0.4072,0.4102,0.4113,0.4128,0.409,0.409,0.409,0,0.4312,0.4296,0.4289,0.4262,0.4257,0.4252,0.4234,0.4224,0.4203,0.4191,0.4177,0.4158,0.4148,0.4134,0.412,0.4116,0.4108,0.4097,0.4097,0.4095,0.4079,0.41,0.4133,0.4135,0.4093,0.4093,0.4092,0,0.4343,0.4321,0.4314,0.4305,0.4273,0.427,0.4257,0.4235,0.4226,0.4209,0.4203,0.4185,0.4176,0.4162,0.4139,0.413,0.4128,0.4111,0.4117,0.4118,0.4117,0.4118,0.4149,0.4113,0.4113,0.4113,0.4113,0,0.4365,0.4362,0.4327,0.4323,0.4318,0.4292,0.4288,0.4272,0.4253,0.4245,0.4221,0.4213,0.4182,0.4171,0.4152,0.4144,0.414,0.4129,0.4124,0.4131,0.4133,0.4125,0.4124,0.4113,0.4113,0.4113,0.4113,0,0.44,0.4376,0.4367,0.4338,0.4331,0.4329,0.4304,0.4298,0.428,0.427,0.4266,0.4238,0.4223,0.4198,0.4176,0.4164,0.4159,0.4151,0.4166,0.4163,0.4171,0.417,0.4198,0.42,0.4163,0.4163,0.4164,0,0.4415,0.4412,0.4383,0.4376,0.4364,0.4352,0.4343,0.4317,0.4307,0.4284,0.4281,0.4265,0.425,0.4228,0.4206,0.4189,0.418,0.4191,0.4177,0.4184,0.418,0.418,0.4179,0.4194,0.4194,0.4195,0.4195,0,0.4444,0.4433,0.442,0.4404,0.4393,0.4379,0.4363,0.4358,0.4328,0.4319,0.4305,0.4294,0.4272,0.4256,0.4236,0.4221,0.4203,0.42,0.42,0.4207,0.4216,0.4211,0.4175,0.4199,0.4199,0.4198,0.4198,0.4198,0.4469,0.4465,0.4445,0.4431,0.4417,0.4403,0.4396,0.4377,0.4365,0.4346,0.4331,0.4317,0.4296,0.4267,0.4254,0.4243,0.4234,0.4235,0.4235,0.4236,0.4238,0.4219,0.4239,0.4239,0.4239,0.4239,0.4238,0,0.4497,0.4483,0.4471,0.445,0.4439,0.4424,0.4406,0.4398,0.4386,0.4368,0.4355,0.4338,0.4323,0.4299,0.4281,0.4277,0.4268,0.4273,0.4273,0.427,0.4247,0.4248,0.428,0.428,0.428,0.428,0.428,0.428,0.4511,0.4503,0.449,0.4475,0.446,0.4447,0.4438,0.4424,0.441,0.4392,0.438,0.4365,0.4344,0.4325,0.431,0.4303,0.4298,0.4306,0.4296,0.4275,0.4271,0.4268,0.4269,0.4305,0.4305,0.432,0.432,0.432]}]]